Time,TemperatureF,DewpointF,PressureIn,WindDirection,WindDirectionDegrees,WindSpeedMPH,WindSpeedGustMPH,Humidity,HourlyPrecipIn,Conditions,Clouds,dailyrainin,SoftwareType,DateUTC
2017-08-21 00:04:00,73.2,48.1,29.90,WNW,298,0.0,0.0,41,0.00,,SKC,0.00,VWS V15.00,2017-08-21 07:04:00,
2017-08-21 00:09:00,73.0,46.6,29.90,WSW,256,0.0,3.0,39,0.00,,SKC,0.00,VWS V15.00,2017-08-21 07:09:00,
2017-08-21 00:14:00,73.3,46.9,29.90,WSW,249,0.0,0.0,39,0.00,,SKC,0.00,VWS V15.00,2017-08-21 07:14:00,
2017-08-21 00:19:00,73.3,46.9,29.90,North,351,2.0,3.0,39,0.00,,SKC,0.00,VWS V15.00,2017-08-21 07:19:00,
2017-08-21 00:24:00,73.2,46.8,29.90,WNW,301,0.0,0.0,39,0.00,,SKC,0.00,VWS V15.00,2017-08-21 07:24:00,
2017-08-21 00:29:00,73.0,47.3,29.90,SSE,162,0.0,2.0,40,0.00,,SKC,0.00,VWS V15.00,2017-08-21 07:29:00,
2017-08-21 00:34:00,73.1,46.7,29.90,SW,221,0.0,0.0,39,0.00,,SKC,0.00,VWS V15.00,2017-08-21 07:34:00,
2017-08-21 00:39:00,73.3,46.2,29.89,SE,140,0.0,2.0,38,0.00,,SKC,0.00,VWS V15.00,2017-08-21 07:39:00,
2017-08-21 00:44:00,73.2,46.8,29.90,NNE,15,3.0,4.0,39,0.00,,SKC,0.00,VWS V15.00,2017-08-21 07:44:00,
2017-08-21 00:49:00,72.6,46.2,29.90,NE,44,5.0,7.0,39,0.00,,SKC,0.00,VWS V15.00,2017-08-21 07:49:00,
2017-08-21 00:54:00,72.6,46.2,29.90,SW,221,0.0,2.0,39,0.00,,SKC,0.00,VWS V15.00,2017-08-21 07:54:00,
2017-08-21 00:59:00,73.4,46.3,29.90,NNE,26,3.0,3.0,38,0.00,,SKC,0.00,VWS V15.00,2017-08-21 07:59:00,
2017-08-21 01:04:00,73.1,46.0,29.90,NNE,12,0.0,0.0,38,0.00,,SKC,0.00,VWS V15.00,2017-08-21 08:04:00,
2017-08-21 01:09:00,72.6,45.6,29.90,NE,44,0.0,0.0,38,0.00,,SKC,0.00,VWS V15.00,2017-08-21 08:09:00,
2017-08-21 01:14:00,72.9,45.8,29.90,NNE,27,0.0,0.0,38,0.00,,SKC,0.00,VWS V15.00,2017-08-21 08:14:00,
2017-08-21 01:19:00,72.9,45.1,29.90,NE,54,0.0,0.0,37,0.00,,SKC,0.00,VWS V15.00,2017-08-21 08:19:00,
2017-08-21 01:24:00,72.5,46.2,29.90,ENE,68,2.0,4.0,39,0.00,,SKC,0.00,VWS V15.00,2017-08-21 08:24:00,
2017-08-21 01:29:00,71.7,46.8,29.90,ESE,115,0.0,0.0,41,0.00,,SKC,0.00,VWS V15.00,2017-08-21 08:29:00,
2017-08-21 01:35:00,71.4,46.5,29.90,ESE,107,0.0,1.0,41,0.00,,SKC,0.00,VWS V15.00,2017-08-21 08:35:00,
2017-08-21 01:40:00,71.3,46.4,29.90,ESE,108,0.0,0.0,41,0.00,,SKC,0.00,VWS V15.00,2017-08-21 08:40:00,
2017-08-21 01:46:00,71.1,46.2,29.90,ESE,108,0.0,0.0,41,0.00,,SKC,0.00,VWS V15.00,2017-08-21 08:46:00,
2017-08-21 01:51:00,70.9,46.7,29.91,ESE,108,0.0,0.0,42,0.00,,SKC,0.00,VWS V15.00,2017-08-21 08:51:00,
2017-08-21 01:56:00,70.7,46.5,29.91,ESE,108,0.0,0.0,42,0.00,,SKC,0.00,VWS V15.00,2017-08-21 08:56:00,
2017-08-21 02:01:00,69.9,46.4,29.91,ESE,108,0.0,1.0,43,0.00,,SKC,0.00,VWS V15.00,2017-08-21 09:01:00,
2017-08-21 02:06:00,69.8,46.9,29.91,SE,141,0.0,0.0,44,0.00,,SKC,0.00,VWS V15.00,2017-08-21 09:06:00,
2017-08-21 02:11:00,69.6,46.8,29.91,SE,141,0.0,0.0,44,0.00,,SKC,0.00,VWS V15.00,2017-08-21 09:11:00,
2017-08-21 02:16:00,69.3,46.5,29.91,SE,141,0.0,0.0,44,0.00,,SKC,0.00,VWS V15.00,2017-08-21 09:16:00,
2017-08-21 02:21:00,69.2,47.0,29.91,SE,141,0.0,0.0,45,0.00,,SKC,0.00,VWS V15.00,2017-08-21 09:21:00,
2017-08-21 02:26:00,68.9,46.7,29.91,SSE,148,0.0,0.0,45,0.00,,SKC,0.00,VWS V15.00,2017-08-21 09:26:00,
2017-08-21 02:31:00,68.7,46.5,29.91,SSE,148,0.0,0.0,45,0.00,,SKC,0.00,VWS V15.00,2017-08-21 09:31:00,
2017-08-21 02:36:00,68.6,46.4,29.91,SSE,148,0.0,0.0,45,0.00,,SKC,0.00,VWS V15.00,2017-08-21 09:36:00,
2017-08-21 02:41:00,68.6,46.4,29.92,SSE,148,0.0,0.0,45,0.00,,SKC,0.00,VWS V15.00,2017-08-21 09:41:00,
2017-08-21 02:46:00,68.1,46.6,29.92,SSE,148,0.0,0.0,46,0.00,,SKC,0.00,VWS V15.00,2017-08-21 09:46:00,
2017-08-21 02:51:00,67.7,46.8,29.92,SSE,148,0.0,0.0,47,0.00,,SKC,0.00,VWS V15.00,2017-08-21 09:51:00,
2017-08-21 02:56:00,67.6,46.7,29.92,SSE,148,0.0,0.0,47,0.00,,SKC,0.00,VWS V15.00,2017-08-21 09:56:00,
2017-08-21 03:01:00,67.7,46.8,29.92,SE,146,0.0,0.0,47,0.00,,SKC,0.00,VWS V15.00,2017-08-21 10:01:00,
2017-08-21 03:06:00,67.7,46.2,29.92,SSE,166,0.0,2.0,46,0.00,,SKC,0.00,VWS V15.00,2017-08-21 10:06:00,
2017-08-21 03:11:00,67.8,46.3,29.92,SSW,197,2.0,3.0,46,0.00,,SKC,0.00,VWS V15.00,2017-08-21 10:11:00,
2017-08-21 03:16:00,67.7,46.8,29.92,SSW,203,1.0,3.0,47,0.00,,SKC,0.00,VWS V15.00,2017-08-21 10:16:00,
2017-08-21 03:21:00,67.6,46.1,29.92,SSE,155,3.0,4.0,46,0.00,,SKC,0.00,VWS V15.00,2017-08-21 10:21:00,
2017-08-21 03:26:00,67.9,46.4,29.92,South,171,0.0,0.0,46,0.00,,SKC,0.00,VWS V15.00,2017-08-21 10:26:00,
2017-08-21 03:31:00,68.3,46.2,29.92,SSE,155,0.0,0.0,45,0.00,,SKC,0.00,VWS V15.00,2017-08-21 10:31:00,
2017-08-21 03:36:00,68.5,46.3,29.92,SSE,155,0.0,0.0,45,0.00,,SKC,0.00,VWS V15.00,2017-08-21 10:36:00,
2017-08-21 03:41:00,68.3,46.2,29.92,SSE,155,0.0,0.0,45,0.00,,SKC,0.00,VWS V15.00,2017-08-21 10:41:00,
2017-08-21 03:46:00,68.0,45.9,29.92,SSE,155,0.0,0.0,45,0.00,,SKC,0.00,VWS V15.00,2017-08-21 10:46:00,
2017-08-21 03:51:00,67.9,45.8,29.92,SSE,155,0.0,0.0,45,0.00,,SKC,0.00,VWS V15.00,2017-08-21 10:51:00,
2017-08-21 03:56:00,67.4,45.9,29.92,SSE,155,0.0,0.0,46,0.00,,SKC,0.00,VWS V15.00,2017-08-21 10:56:00,
2017-08-21 04:01:00,66.9,46.0,29.92,SSE,155,0.0,0.0,47,0.00,,SKC,0.00,VWS V15.00,2017-08-21 11:01:00,
2017-08-21 04:06:00,66.3,46.0,29.92,SSE,155,0.0,0.0,48,0.00,,SKC,0.00,VWS V15.00,2017-08-21 11:06:00,
2017-08-21 04:11:00,65.8,46.1,29.92,SSE,155,0.0,0.0,49,0.00,,SKC,0.00,VWS V15.00,2017-08-21 11:11:00,
2017-08-21 04:17:00,65.5,45.8,29.92,SSE,155,0.0,0.0,49,0.00,,SKC,0.00,VWS V15.00,2017-08-21 11:17:00,
2017-08-21 04:22:00,65.2,46.1,29.92,SSE,155,0.0,0.0,50,0.00,,SKC,0.00,VWS V15.00,2017-08-21 11:22:00,
2017-08-21 04:27:00,64.9,46.4,29.93,SSE,155,0.0,0.0,51,0.00,,SKC,0.00,VWS V15.00,2017-08-21 11:27:00,
2017-08-21 04:32:00,64.9,46.4,29.93,SSE,155,0.0,0.0,51,0.00,,SKC,0.00,VWS V15.00,2017-08-21 11:32:00,
2017-08-21 04:37:00,64.7,46.7,29.93,SW,224,2.0,3.0,52,0.00,,SKC,0.00,VWS V15.00,2017-08-21 11:37:00,
2017-08-21 04:42:00,64.2,46.7,29.93,SW,229,0.0,0.0,53,0.00,,SKC,0.00,VWS V15.00,2017-08-21 11:42:00,
2017-08-21 04:47:00,64.4,46.4,29.93,WSW,238,0.0,0.0,52,0.00,,SKC,0.00,VWS V15.00,2017-08-21 11:47:00,
2017-08-21 04:52:00,64.4,46.9,29.93,SW,226,0.0,0.0,53,0.00,,SKC,0.00,VWS V15.00,2017-08-21 11:52:00,
2017-08-21 04:57:00,64.1,46.1,29.93,SW,226,0.0,0.0,52,0.00,,SKC,0.00,VWS V15.00,2017-08-21 11:57:00,
2017-08-21 05:02:00,64.5,46.0,29.93,SSW,200,0.0,0.0,51,0.00,,SKC,0.00,VWS V15.00,2017-08-21 12:02:00,
2017-08-21 05:07:00,64.3,45.8,29.93,SSW,200,0.0,0.0,51,0.00,,SKC,0.00,VWS V15.00,2017-08-21 12:07:00,
2017-08-21 05:12:00,64.1,46.1,29.93,South,173,2.0,2.0,52,0.00,,SKC,0.00,VWS V15.00,2017-08-21 12:12:00,
2017-08-21 05:17:00,64.1,46.1,29.93,South,176,0.0,0.0,52,0.00,,SKC,0.00,VWS V15.00,2017-08-21 12:17:00,
2017-08-21 05:22:00,64.5,44.4,29.93,SSW,193,2.0,2.0,48,0.00,,SKC,0.00,VWS V15.00,2017-08-21 12:22:00,
2017-08-21 05:27:00,66.0,44.7,29.93,South,176,1.0,2.0,46,0.00,,SKC,0.00,VWS V15.00,2017-08-21 12:27:00,
2017-08-21 05:32:00,66.3,44.9,29.93,SW,214,2.0,4.0,46,0.00,,SKC,0.00,VWS V15.00,2017-08-21 12:32:00,
2017-08-21 05:37:00,66.2,44.8,29.93,SSW,194,2.0,3.0,46,0.00,,SKC,0.00,VWS V15.00,2017-08-21 12:37:00,
2017-08-21 05:42:00,65.9,45.1,29.93,South,191,0.0,0.0,47,0.00,,SKC,0.00,VWS V15.00,2017-08-21 12:42:00,
2017-08-21 05:47:00,65.5,45.3,29.93,SSW,194,2.0,2.0,48,0.00,,SKC,0.00,VWS V15.00,2017-08-21 12:47:00,
2017-08-21 05:52:00,65.4,45.2,29.93,SSW,195,2.0,3.0,48,0.00,,SKC,0.00,VWS V15.00,2017-08-21 12:52:00,
2017-08-21 05:57:00,65.6,44.8,29.94,SSW,197,0.0,2.0,47,0.00,,SKC,0.00,VWS V15.00,2017-08-21 12:57:00,
2017-08-21 06:02:00,65.7,44.9,29.93,South,191,0.0,0.0,47,0.00,,SKC,0.00,VWS V15.00,2017-08-21 13:02:00,
2017-08-21 06:07:00,65.2,45.0,29.94,NNW,347,2.0,2.0,48,0.00,,SKC,0.00,VWS V15.00,2017-08-21 13:07:00,
2017-08-21 06:12:00,64.7,44.6,29.94,NNW,345,0.0,0.0,48,0.00,,SKC,0.00,VWS V15.00,2017-08-21 13:12:00,
2017-08-21 06:18:00,63.6,45.2,29.94,NNW,339,0.0,0.0,51,0.00,,SKC,0.00,VWS V15.00,2017-08-21 13:18:00,
2017-08-21 06:23:00,62.8,45.4,29.95,NNW,335,0.0,0.0,53,0.00,,SKC,0.00,VWS V15.00,2017-08-21 13:23:00,
2017-08-21 06:28:00,62.1,45.8,29.95,NNW,335,0.0,0.0,55,0.00,,SKC,0.00,VWS V15.00,2017-08-21 13:28:00,
2017-08-21 06:33:00,61.7,45.4,29.95,SW,225,1.0,2.0,55,0.00,,SKC,0.00,VWS V15.00,2017-08-21 13:33:00,
2017-08-21 06:38:00,61.6,45.8,29.95,SW,226,0.0,0.0,56,0.00,,SKC,0.00,VWS V15.00,2017-08-21 13:38:00,
2017-08-21 06:43:00,61.8,46.0,29.95,SW,226,0.0,0.0,56,0.00,,SKC,0.00,VWS V15.00,2017-08-21 13:43:00,
2017-08-21 06:48:00,62.4,46.5,29.96,SW,226,0.0,0.0,56,0.00,,SKC,0.00,VWS V15.00,2017-08-21 13:48:00,
2017-08-21 06:53:00,63.6,46.7,29.96,SW,226,0.0,0.0,54,0.00,,SKC,0.00,VWS V15.00,2017-08-21 13:53:00,
2017-08-21 06:58:00,64.2,47.2,29.96,South,180,0.0,0.0,54,0.00,,SKC,0.00,VWS V15.00,2017-08-21 13:58:00,
2017-08-21 07:03:00,64.2,47.2,29.96,SW,221,0.0,0.0,54,0.00,,SKC,0.00,VWS V15.00,2017-08-21 14:03:00,
2017-08-21 07:08:00,64.4,47.4,29.96,SW,221,0.0,0.0,54,0.00,,SKC,0.00,VWS V15.00,2017-08-21 14:08:00,
2017-08-21 07:13:00,64.9,47.4,29.96,SW,221,0.0,0.0,53,0.00,,SKC,0.00,VWS V15.00,2017-08-21 14:13:00,
2017-08-21 07:18:00,65.4,47.8,29.97,WSW,246,0.0,0.0,53,0.00,,SKC,0.00,VWS V15.00,2017-08-21 14:18:00,
2017-08-21 07:20:00,65.7,48.1,29.97,WSW,246,0.0,0.0,53,0.00,,SKC,0.00,VWS V15.00,2017-08-21 14:20:00,
2017-08-21 07:25:00,66.5,47.8,29.97,WSW,246,0.0,0.0,51,0.00,,SKC,0.00,VWS V15.00,2017-08-21 14:25:00,
2017-08-21 07:30:00,67.2,48.0,29.97,WSW,246,0.0,0.0,50,0.00,,SKC,0.00,VWS V15.00,2017-08-21 14:30:00,
2017-08-21 07:35:00,67.7,47.9,29.98,East,91,0.0,0.0,49,0.00,,SKC,0.00,VWS V15.00,2017-08-21 14:35:00,
2017-08-21 07:40:00,67.8,48.0,29.98,ENE,73,0.0,1.0,49,0.00,,SKC,0.00,VWS V15.00,2017-08-21 14:40:00,
2017-08-21 07:45:00,68.0,47.6,29.98,NE,41,2.0,4.0,48,0.00,,SKC,0.00,VWS V15.00,2017-08-21 14:45:00,
2017-08-21 07:50:00,68.6,48.2,29.98,East,84,1.0,3.0,48,0.00,,SKC,0.00,VWS V15.00,2017-08-21 14:50:00,
2017-08-21 07:55:00,69.0,48.0,29.99,NE,55,0.0,1.0,47,0.00,,SKC,0.00,VWS V15.00,2017-08-21 14:55:00,
2017-08-21 08:00:00,69.9,48.2,29.99,NE,55,0.0,0.0,46,0.00,,SKC,0.00,VWS V15.00,2017-08-21 15:00:00,
2017-08-21 08:05:00,71.3,48.3,29.99,ENE,58,0.0,0.0,44,0.00,,SKC,0.00,VWS V15.00,2017-08-21 15:05:00,
2017-08-21 08:10:00,71.6,47.3,29.99,ENE,58,0.0,0.0,42,0.00,,SKC,0.00,VWS V15.00,2017-08-21 15:10:00,
2017-08-21 08:15:00,72.2,47.9,29.99,SSE,148,0.0,0.0,42,0.00,,SKC,0.00,VWS V15.00,2017-08-21 15:15:00,
2017-08-21 08:20:00,73.3,47.5,30.00,SSE,148,0.0,0.0,40,0.00,,SKC,0.00,VWS V15.00,2017-08-21 15:20:00,
2017-08-21 08:25:00,73.7,47.2,30.00,ENE,70,0.0,0.0,39,0.00,,SKC,0.00,VWS V15.00,2017-08-21 15:25:00,
2017-08-21 08:30:00,73.6,47.8,30.00,ENE,75,0.0,0.0,40,0.00,,SKC,0.00,VWS V15.00,2017-08-21 15:30:00,
2017-08-21 08:35:00,73.7,47.9,29.99,ENE,69,0.0,0.0,40,0.00,,SKC,0.00,VWS V15.00,2017-08-21 15:35:00,
2017-08-21 08:40:00,74.3,47.8,30.00,SE,136,0.0,0.0,39,0.00,,SKC,0.00,VWS V15.00,2017-08-21 15:40:00,
2017-08-21 08:45:00,74.7,47.4,30.00,SE,134,0.0,0.0,38,0.00,,SKC,0.00,VWS V15.00,2017-08-21 15:45:00,
2017-08-21 08:51:00,75.2,47.2,30.00,SSE,153,0.0,0.0,37,0.00,,SKC,0.00,VWS V15.00,2017-08-21 15:51:00,
2017-08-21 08:56:00,75.8,47.0,30.00,SW,232,0.0,0.0,36,0.00,,SKC,0.00,VWS V15.00,2017-08-21 15:56:00,
2017-08-21 09:01:00,75.8,47.7,30.00,NW,310,0.0,0.0,37,0.00,,SKC,0.00,VWS V15.00,2017-08-21 16:01:00,
2017-08-21 09:06:00,76.1,46.5,30.00,North,356,0.0,0.0,35,0.00,,SKC,0.00,VWS V15.00,2017-08-21 16:06:00,
2017-08-21 09:11:00,77.4,47.6,30.00,NE,41,0.0,0.0,35,0.00,,SKC,0.00,VWS V15.00,2017-08-21 16:11:00,
2017-08-21 09:16:00,77.7,47.1,30.00,NE,53,1.0,1.0,34,0.00,,SKC,0.00,VWS V15.00,2017-08-21 16:16:00,
2017-08-21 09:21:00,77.5,46.2,30.00,ENE,59,1.0,1.0,33,0.00,,SKC,0.00,VWS V15.00,2017-08-21 16:21:00,
2017-08-21 09:26:00,77.8,46.4,30.00,NNE,31,0.0,2.0,33,0.00,,SKC,0.00,VWS V15.00,2017-08-21 16:26:00,
2017-08-21 09:31:00,78.2,46.8,30.00,ENE,71,2.0,2.0,33,0.00,,SKC,0.00,VWS V15.00,2017-08-21 16:31:00,
2017-08-21 09:36:00,78.1,45.9,30.00,NNE,13,0.0,2.0,32,0.00,,SKC,0.00,VWS V15.00,2017-08-21 16:36:00,
2017-08-21 09:41:00,78.7,45.6,30.00,North,355,0.0,0.0,31,0.00,,SKC,0.00,VWS V15.00,2017-08-21 16:41:00,
2017-08-21 09:47:00,78.7,44.7,30.00,NNW,335,0.0,0.0,30,0.00,,SKC,0.00,VWS V15.00,2017-08-21 16:47:00,
2017-08-21 09:52:00,78.9,44.9,30.00,North,10,0.0,0.0,30,0.00,,SKC,0.00,VWS V15.00,2017-08-21 16:52:00,
2017-08-21 09:57:00,79.2,44.2,30.00,North,10,0.0,0.0,29,0.00,,SKC,0.00,VWS V15.00,2017-08-21 16:57:00,
2017-08-21 10:02:00,79.6,45.5,30.00,North,5,0.0,0.0,30,0.00,,SKC,0.00,VWS V15.00,2017-08-21 17:02:00,
2017-08-21 10:07:00,79.7,44.7,30.00,WNW,294,0.0,0.0,29,0.00,,SKC,0.00,VWS V15.00,2017-08-21 17:07:00,
2017-08-21 10:12:00,79.8,44.8,30.00,NW,309,0.0,0.0,29,0.00,,SKC,0.00,VWS V15.00,2017-08-21 17:12:00,
2017-08-21 10:17:00,79.9,45.7,30.00,NW,309,0.0,0.0,30,0.00,,SKC,0.00,VWS V15.00,2017-08-21 17:17:00,
2017-08-21 10:22:00,79.8,44.8,30.00,NE,51,0.0,0.0,29,0.00,,SKC,0.00,VWS V15.00,2017-08-21 17:22:00,
2017-08-21 10:27:00,79.4,44.4,30.00,NNE,33,0.0,0.0,29,0.00,,SKC,0.00,VWS V15.00,2017-08-21 17:27:00,
2017-08-21 10:32:00,79.5,44.5,30.00,NNE,23,0.0,0.0,29,0.00,,SKC,0.00,VWS V15.00,2017-08-21 17:32:00,
2017-08-21 10:37:00,79.5,44.5,30.00,WNW,296,0.0,0.0,29,0.00,,SKC,0.00,VWS V15.00,2017-08-21 17:37:00,
2017-08-21 10:42:00,79.6,44.6,30.00,WNW,298,0.0,0.0,29,0.00,,SKC,0.00,VWS V15.00,2017-08-21 17:42:00,
2017-08-21 10:47:00,79.8,43.8,30.00,NW,321,0.0,0.0,28,0.00,,SKC,0.00,VWS V15.00,2017-08-21 17:47:00,
2017-08-21 10:52:00,80.0,44.0,30.00,North,353,0.0,0.0,28,0.00,,SKC,0.00,VWS V15.00,2017-08-21 17:52:00,
2017-08-21 10:57:00,80.3,44.3,30.00,North,355,0.0,0.0,28,0.00,,SKC,0.00,VWS V15.00,2017-08-21 17:57:00,
2017-08-21 11:02:00,80.7,43.7,30.00,NE,53,0.0,0.0,27,0.00,,SKC,0.00,VWS V15.00,2017-08-21 18:02:00,
2017-08-21 11:07:00,80.9,43.8,30.00,East,83,0.0,0.0,27,0.00,,SKC,0.00,VWS V15.00,2017-08-21 18:07:00,
2017-08-21 11:12:00,81.5,43.3,30.00,ENE,72,0.0,0.0,26,0.00,,SKC,0.00,VWS V15.00,2017-08-21 18:12:00,
2017-08-21 11:17:00,82.1,43.8,30.00,NE,41,0.0,0.0,26,0.00,,SKC,0.00,VWS V15.00,2017-08-21 18:17:00,
2017-08-21 11:22:00,82.7,43.3,30.00,NE,49,0.0,0.0,25,0.00,,SKC,0.00,VWS V15.00,2017-08-21 18:22:00,
2017-08-21 11:27:00,83.4,43.9,29.99,NE,50,0.0,0.0,25,0.00,,SKC,0.00,VWS V15.00,2017-08-21 18:27:00,
2017-08-21 11:32:00,83.8,42.1,29.99,NW,315,0.0,0.0,23,0.00,,SKC,0.00,VWS V15.00,2017-08-21 18:32:00,
2017-08-21 11:37:00,83.9,41.0,29.99,WNW,288,0.0,0.0,22,0.00,,SKC,0.00,VWS V15.00,2017-08-21 18:37:00,
2017-08-21 11:42:00,85.1,42.0,29.99,WSW,252,0.0,1.0,22,0.00,,SKC,0.00,VWS V15.00,2017-08-21 18:42:00,
2017-08-21 11:48:00,85.7,41.3,29.99,NNW,332,0.0,2.0,21,0.00,,SKC,0.00,VWS V15.00,2017-08-21 18:48:00,
2017-08-21 11:53:00,85.8,41.4,29.99,North,351,2.0,2.0,21,0.00,,SKC,0.00,VWS V15.00,2017-08-21 18:53:00,
2017-08-21 11:58:00,86.2,40.5,29.99,NW,317,0.0,2.0,20,0.00,,SKC,0.00,VWS V15.00,2017-08-21 18:58:00,
2017-08-21 12:03:00,86.8,39.6,29.99,South,172,2.0,2.0,19,0.00,,SKC,0.00,VWS V15.00,2017-08-21 19:03:00,
2017-08-21 12:08:00,87.8,40.5,29.99,SE,134,1.0,1.0,19,0.00,,SKC,0.00,VWS V15.00,2017-08-21 19:08:00,
2017-08-21 12:13:00,88.1,39.3,29.99,SSE,158,3.0,3.0,18,0.00,,SKC,0.00,VWS V15.00,2017-08-21 19:13:00,
2017-08-21 12:18:00,88.4,39.5,29.99,South,184,0.0,0.0,18,0.00,,SKC,0.00,VWS V15.00,2017-08-21 19:18:00,
2017-08-21 12:23:00,89.2,38.7,29.99,West,277,0.0,0.0,17,0.00,,SKC,0.00,VWS V15.00,2017-08-21 19:23:00,
2017-08-21 12:29:00,89.1,38.7,29.98,SW,226,0.0,4.0,17,0.00,,SKC,0.00,VWS V15.00,2017-08-21 19:29:00,
2017-08-21 12:34:00,89.3,38.8,29.98,WSW,243,1.0,3.0,17,0.00,,SKC,0.00,VWS V15.00,2017-08-21 19:34:00,
2017-08-21 12:39:00,89.8,39.2,29.98,SSW,194,2.0,6.0,17,0.00,,SKC,0.00,VWS V15.00,2017-08-21 19:39:00,
2017-08-21 12:44:00,89.8,39.2,29.98,SSE,163,0.0,0.0,17,0.00,,SKC,0.00,VWS V15.00,2017-08-21 19:44:00,
2017-08-21 12:49:00,90.3,39.6,29.98,SSE,151,2.0,4.0,17,0.00,,SKC,0.00,VWS V15.00,2017-08-21 19:49:00,
2017-08-21 12:54:00,90.2,39.5,29.98,SW,226,4.0,4.0,17,0.00,,SKC,0.00,VWS V15.00,2017-08-21 19:54:00,
2017-08-21 12:59:00,90.0,37.8,29.98,SSE,158,2.0,5.0,16,0.00,,SKC,0.00,VWS V15.00,2017-08-21 19:59:00,
2017-08-21 13:04:00,90.7,39.9,29.97,East,89,4.0,4.0,17,0.00,,SKC,0.00,VWS V15.00,2017-08-21 20:04:00,
2017-08-21 13:09:00,89.8,39.2,29.97,NE,34,5.0,6.0,17,0.00,,SKC,0.00,VWS V15.00,2017-08-21 20:09:00,
2017-08-21 13:14:00,89.5,40.5,29.97,NNE,14,0.0,0.0,18,0.00,,SKC,0.00,VWS V15.00,2017-08-21 20:14:00,
2017-08-21 13:19:00,89.9,39.3,29.97,ESE,107,0.0,1.0,17,0.00,,SKC,0.00,VWS V15.00,2017-08-21 20:19:00,
2017-08-21 13:24:00,90.7,38.4,29.97,WNW,284,0.0,1.0,16,0.00,,SKC,0.00,VWS V15.00,2017-08-21 20:24:00,
2017-08-21 13:29:00,91.4,39.0,29.97,NW,322,0.0,0.0,16,0.00,,SKC,0.00,VWS V15.00,2017-08-21 20:29:00,
2017-08-21 13:34:00,91.8,39.3,29.97,SSW,203,2.0,5.0,16,0.00,,SKC,0.00,VWS V15.00,2017-08-21 20:34:00,
2017-08-21 13:39:00,91.3,38.9,29.97,North,351,0.0,1.0,16,0.00,,SKC,0.00,VWS V15.00,2017-08-21 20:39:00,
2017-08-21 13:44:00,91.9,39.3,29.96,South,190,0.0,4.0,16,0.00,,SKC,0.00,VWS V15.00,2017-08-21 20:44:00,
2017-08-21 13:50:00,92.3,39.7,29.96,ENE,78,0.0,3.0,16,0.00,,SKC,0.00,VWS V15.00,2017-08-21 20:50:00,
2017-08-21 13:55:00,92.3,39.7,29.96,NNW,328,4.0,6.0,16,0.00,,SKC,0.00,VWS V15.00,2017-08-21 20:55:00,
2017-08-21 14:00:00,92.0,39.4,29.96,NE,34,6.0,6.0,16,0.00,,SKC,0.00,VWS V15.00,2017-08-21 21:00:00,
2017-08-21 14:05:00,92.7,38.3,29.96,SE,129,3.0,4.0,15,0.00,,SKC,0.00,VWS V15.00,2017-08-21 21:05:00,
2017-08-21 14:10:00,93.3,40.5,29.95,NW,319,7.0,8.0,16,0.00,,SKC,0.00,VWS V15.00,2017-08-21 21:10:00,
2017-08-21 14:15:00,92.6,41.5,29.95,NNW,348,5.0,5.0,17,0.00,,SKC,0.00,VWS V15.00,2017-08-21 21:15:00,
2017-08-21 14:20:00,92.6,43.0,29.96,WSW,248,1.0,3.0,18,0.00,,SKC,0.00,VWS V15.00,2017-08-21 21:20:00,
2017-08-21 14:25:00,92.4,42.8,29.95,South,177,7.0,9.0,18,0.00,,SKC,0.00,VWS V15.00,2017-08-21 21:25:00,
2017-08-21 14:30:00,93.0,43.3,29.95,West,278,3.0,14.0,18,0.00,,SKC,0.00,VWS V15.00,2017-08-21 21:30:00,
2017-08-21 14:35:00,92.4,42.8,29.94,West,259,12.0,12.0,18,0.00,,SKC,0.00,VWS V15.00,2017-08-21 21:35:00,
2017-08-21 14:40:00,92.0,42.5,29.95,SW,218,7.0,12.0,18,0.00,,SKC,0.00,VWS V15.00,2017-08-21 21:40:00,
2017-08-21 14:45:00,91.3,43.3,29.95,WSW,252,7.0,12.0,19,0.00,,SKC,0.00,VWS V15.00,2017-08-21 21:45:00,
2017-08-21 14:50:00,91.5,43.5,29.94,WNW,288,6.0,11.0,19,0.00,,SKC,0.00,VWS V15.00,2017-08-21 21:50:00,
2017-08-21 14:55:00,91.3,44.7,29.95,SW,226,5.0,11.0,20,0.00,,SKC,0.00,VWS V15.00,2017-08-21 21:55:00,
2017-08-21 15:00:00,90.9,44.3,29.94,SW,236,6.0,12.0,20,0.00,,SKC,0.00,VWS V15.00,2017-08-21 22:00:00,
2017-08-21 15:05:00,91.1,44.5,29.94,SSW,194,9.0,17.0,20,0.00,,SKC,0.00,VWS V15.00,2017-08-21 22:05:00,
2017-08-21 15:10:00,90.6,45.4,29.94,SW,225,12.0,16.0,21,0.00,,SKC,0.00,VWS V15.00,2017-08-21 22:10:00,
2017-08-21 15:15:00,90.3,45.1,29.94,SW,221,11.0,19.0,21,0.00,,SKC,0.00,VWS V15.00,2017-08-21 22:15:00,